Location: Bremen
(53.0796°N, 8.8241°E)
Time: 09:46:42
(UTC+01:00)

ISS - Pass Details

Date: 04 January 2018
Orbit: 401 x 406 km, 51.6° (Epoch: 17 January)

Event Time Altitude Azimuth Distance (km) Brightness Sun altitude
Exits shadow 06:56:02 24° 255° (WSW) 884 -2.6 -14.2°
Maximum altitude 06:57:49 69° 177° (S) 440 -3.6 -13.9°
Drops below altitude 10° 07:01:06 10° 94° (E) 1,470 0.3 -13.5°
Sets 07:03:12 0° 92° (E) 2,331 1.5 -13.2°
